Regional Weather Roundup
Issued by NWS Sioux Falls, SD

Home | Current Version | Previous Version | Graphics & Text | Print | Product List | Glossary On
Versions: 1 2 3 4 5 6 7 8 9 10 11 12 13 14 15 16 17 18 19 20 21 22 23 24 25 26 27 28 29 30 31 32 33 34 35 36 37 38 39 40 41 42 43 44 45 46 47 48 49 50
000
ASUS43 KFSD 210110
RWRFSD

WEATHER ROUNDUP FOR SE SOUTH DAKOTA/SW MINNESOTA/NW IOWA
NATIONAL WEATHER SERVICE SIOUX FALLS SD
800 PM CDT FRI APR 20 2018

NOTE: "FAIR" INDICATES FEW OR NO CLOUDS BELOW 12,000 FEET WITH NO
SIGNIFICANT WEATHER AND OR OBSTRUCTIONS TO VISIBILITY.


SDZ038>040-050-052>070-210200-
SOUTHEAST SOUTH DAKOTA

CITY           SKY/WX    TMP DP  RH WIND       PRES   REMARKS
BROOKINGS      CLOUDY    43  38  82 E8        30.37S
CHAMBERLAIN    RAIN      45  43  92 E3        30.33R
HURON          CLOUDY    46  37  71 SE8       30.34S
MADISON        FAIR      41  41 100 E8        30.36S
MITCHELL       CLOUDY    42  36  79 E6        30.35S
SIOUX FALLS    CLOUDY    43  37  79 E9        30.36S
WINNER         CLOUDY    43  36  76 S8        30.33R
YANKTON        CLOUDY    48  40  73 E10       30.33R
$$

MNZ071-072-080-081-089-090-097-098-210200-
SOUTHWEST MINNESOTA

CITY           SKY/WX    TMP DP  RH WIND       PRES   REMARKS
FAIRMONT       CLOUDY    36  28  73 E5        30.42F
JACKSON        CLOUDY    34  30  86 E7        30.41F WCI  28
LUVERNE        CLOUDY    39  34  81 NE5       30.38S
MARSHALL       CLOUDY    38  31  76 SE7       30.42S
MONTEVIDEO     CLOUDY    39  32  75 S6        30.42S
PIPESTONE      CLOUDY   N/A N/A N/A E7        30.37F
REDWOOD FALLS  CLOUDY    39  32  76 S6        30.43S
TRACY          CLOUDY    38  32  79 S3        30.41R
WINDOM         CLOUDY    37  21  52 CALM      30.41F
WORTHINGTON    CLOUDY    36  31  82 E7        30.40F
$$

IAZ001>003-012>014-020>022-031-032-NEZ013-014-SDZ071-210200-
NORTHWEST IOWA

CITY           SKY/WX    TMP DP  RH WIND       PRES   REMARKS
CHEROKEE       CLOUDY    40  34  80 NE9       30.38R
DENISON        CLOUDY    54  34  47 E7        30.35R
ESTHERVILLE    CLOUDY    34  29  82 NE8       30.40F WCI  27
LE MARS        CLOUDY    45  37  76 NE10      30.36R
ORANGE CITY    CLOUDY    43  37  81 E8        30.37R
SHELDON        CLOUDY    39  37  93 E9        30.36S
SIOUX CITY     CLOUDY    51  37  58 E15       30.33R
SPENCER        CLOUDY    38  31  76 NE10      30.39F
STORM LAKE     CLOUDY    39  36  87 NE13      30.36S
$$

ABBREVIATIONS USED IN REMARKS
   TC - TEMPERATURE IN CELSIUS
  WCI - WIND CHILL INDEX
   HX - HEAT INDEX
  VSB - VISIBILITY





USA.gov is the U.S. government's official web portal to all federal, state and local government web resources and services.